Terminal Aerodrome Forecast
Issued by NWS

Home | Current Version | Previous Version | Text Only | Print | Product List | Glossary On
Versions: 1 2 3 4 5 6 7 8 9 10 11 12 13
000
FTUS46 KHNX 202320
TAFMCE
TAF
KMCE 202320Z 2100/2124 32014G18KT P6SM SCT050 BKN070
     FM210400 32006KT P6SM FEW050 SCT100
     FM211800 32012KT P6SM SKC=

USA.gov is the U.S. government's official web portal to all federal, state and local government web resources and services.